Location: Melizzano
(41.1500°N, 14.5000°E)
Time: 04:35:15
(UTC+00:00)

CZ-4C R/B - Pass Details

Date: 11 May 2021
Orbit: 609 x 1392 km, 63.4° (Epoch: 14 June)

Event Time Altitude Azimuth Distance (km) Brightness Sun altitude
Rises 18:41:49 0° 329° (NNW) 3,755 6.8 -6.2°
Reaches altitude 10° 18:44:40 10° 341° (NNW) 2,925 5.8 -6.7°
Maximum altitude 18:50:48 30° 40° (NE) 2,025 4.1 -7.6°
Drops below altitude 10° 18:57:46 10° 99° (E) 3,349 4.7 -8.7°
Enters shadow 18:58:36 - 102° (ESE) 3,588 4.9 -8.9°
